CDT,Max TemperatureF,Mean TemperatureF,Min TemperatureF,Max Dew PointF,MeanDew PointF,Min DewpointF,Max Humidity, Mean Humidity, Min Humidity, Max Sea Level PressureIn, Mean Sea Level PressureIn, Min Sea Level PressureIn, Max VisibilityMiles, Mean VisibilityMiles, Min VisibilityMiles, Max Wind SpeedMPH, Mean Wind SpeedMPH, Max Gust SpeedMPH,PrecipitationIn, CloudCover, Events, WindDirDegrees
2012-10-1,66,54,42,45,33,25,87,51,21,30.35,30.23,29.98,10,10,5,13,5,,0.00,3,,318
2012-10-2,80,64,48,30,29,27,44,26,16,29.97,29.85,29.80,10,10,6,20,9,28,0.00,0,,311
2012-10-3,50,41,32,37,33,30,100,77,47,30.33,30.04,29.79,10,8,1,24,10,34,0.64,2,Rain-Snow,312
2012-10-4,41,36,32,32,28,25,100,78,56,30.38,30.35,30.32,10,9,2,20,11,28,0.39,6,Rain-Snow,301
2012-10-5,39,34,28,28,25,19,93,73,45,30.36,30.34,30.31,10,10,2,8,2,,0.06,7,Snow,79
2012-10-6,41,32,23,28,20,14,100,66,33,30.38,30.32,30.17,10,9,0,13,5,17,0.26,3,Fog-Snow,289
2012-10-7,55,44,32,32,23,10,57,43,31,30.17,30.01,29.89,10,10,10,22,13,29,0.00,2,,263
2012-10-8,53,45,37,41,33,23,100,59,30,29.95,29.87,29.82,10,8,3,17,13,26,0.62,6,Rain,289
2012-10-9,41,36,32,36,31,28,100,85,65,30.13,30.07,29.95,10,8,1,22,12,30,1.32,7,Rain-Snow,286
2012-10-10,66,50,33,34,29,25,87,49,24,30.10,29.98,29.87,10,10,5,23,9,32,0.00,1,,249
2012-10-11,46,38,30,34,31,27,93,81,57,30.28,30.21,30.04,10,9,7,14,6,,0.00,4,,78
2012-10-12,66,49,32,36,32,28,93,67,32,30.17,29.95,29.76,10,10,5,9,5,,0.00,0,,123
2012-10-13,68,59,50,41,34,30,54,40,24,30.06,29.87,29.72,10,10,5,22,9,30,0.00,3,Rain,294
2012-10-14,64,56,48,37,34,32,58,46,30,30.13,30.07,30.00,10,10,10,20,12,33,0.00,1,,283
2012-10-15,73,63,53,39,30,25,58,31,18,30.00,29.86,29.77,10,10,8,18,10,24,0.00,1,,279
2012-10-16,66,56,46,46,38,32,93,54,30,29.83,29.60,29.38,10,9,4,22,11,38,0.59,1,Rain,265
2012-10-17,48,42,35,32,23,18,81,49,34,29.87,29.73,29.57,10,10,10,34,25,50,0.00,3,Rain,295
2012-10-18,48,42,35,23,16,9,52,38,22,30.08,30.00,29.87,10,10,10,39,28,51,0.00,3,Rain,299
2012-10-19,68,50,32,32,23,14,50,38,23,30.04,29.86,29.72,10,10,8,10,6,,0.00,0,,281
2012-10-20,75,57,39,36,30,25,71,39,21,29.72,29.64,29.55,10,10,9,14,4,21,0.00,0,,273
2012-10-21,46,44,41,39,35,32,87,72,57,29.97,29.90,29.72,10,10,5,16,7,,0.00,5,Rain,99
2012-10-22,50,42,35,41,38,36,100,84,62,29.95,29.82,29.63,10,10,3,25,9,33,0.00,3,Rain,97
2012-10-23,48,42,37,43,38,34,100,90,71,29.91,29.74,29.59,10,9,0,17,7,24,0.01,4,Fog-Rain,297
2012-10-24,37,32,28,37,31,27,100,95,86,30.10,30.00,29.89,10,6,0,12,5,,3.85,5,Rain-Snow,290
2012-10-25,30,26,23,27,23,19,100,91,80,30.34,30.21,30.10,10,9,2,14,10,20,0.00,7,,304
2012-10-26,32,28,23,27,21,18,93,80,60,30.38,30.30,30.13,10,10,3,17,8,23,0.00,4,,286
2012-10-27,41,32,23,28,24,19,93,73,49,30.12,30.08,30.05,10,10,9,8,3,,0.00,2,,215
2012-10-28,48,37,26,34,28,23,86,67,46,30.08,29.98,29.91,10,10,4,10,3,,0.00,4,,156
2012-10-29,62,50,39,41,34,32,75,57,32,30.00,29.98,29.95,10,10,6,9,3,,0.00,2,,184
2012-10-30,60,50,39,37,35,32,87,59,36,30.10,30.05,30.00,10,10,2,13,5,22,0.00,0,,279
2012-10-31,66,52,39,36,33,28,81,49,28,30.11,30.05,30.01,10,10,6,16,4,24,0.00,1,,312